datetime,flow volume
1930-10-01,1388.42975
1930-10-02,1372.56198
1930-10-03,1372.56198
1930-10-04,1372.56198
1930-10-05,1372.56198
1930-10-06,1372.56198
1930-10-07,1372.56198
1930-10-08,1372.56198
1930-10-09,1372.56198
1930-10-10,1372.56198
1930-10-11,1372.56198
1930-10-12,1372.56198
1930-10-13,1372.56198
1930-10-14,1372.56198
1930-10-15,1372.56198
1930-10-16,1372.56198
1930-10-17,1372.56198
1930-10-18,1372.56198
1930-10-19,1372.56198
1930-10-20,1372.56198
1930-10-21,1372.56198
1930-10-22,1372.56198
1930-10-23,1372.56198
1930-10-24,1372.56198
1930-10-25,1372.56198
1930-10-26,1372.56198
1930-10-27,1372.56198
1930-10-28,1372.56198
1930-10-29,1372.56198
1930-10-30,1372.56198
1930-10-31,1372.56198
1930-11-01,1356.69421
1930-11-02,1356.69421
1930-11-03,1338.84298
1930-11-04,1338.84298
1930-11-05,1338.84298
1930-11-06,1338.84298
1930-11-07,1338.84298
1930-11-08,1338.84298
1930-11-09,1338.84298
1930-11-10,1338.84298
1930-11-11,1338.84298
1930-11-12,1338.84298
1930-11-13,1338.84298
1930-11-14,1338.84298
1930-11-15,1338.84298
1930-11-16,1338.84298
1930-11-17,1338.84298
1930-11-18,1338.84298
1930-11-19,1114.71074
1930-11-20,0.0
1930-11-21,515.70248
1930-11-22,1305.12397
1930-11-23,1305.12397
1930-11-24,1406.28099
1930-11-25,1388.42975
1930-11-26,1372.56198
1930-11-27,1271.40496
1930-11-28,1271.40496
1930-11-29,1237.68595
1930-11-30,1203.96694
1930-12-01,1271.40496
1930-12-02,1237.68595
1930-12-03,1203.96694
1930-12-04,1203.96694
1930-12-05,1203.96694
1930-12-06,1203.96694
1930-12-07,1203.96694
1930-12-08,1237.68595
1930-12-09,1237.68595
1930-12-10,1237.68595
1930-12-11,1237.68595
1930-12-12,1203.96694
1930-12-13,1203.96694
1930-12-14,1203.96694
1930-12-15,1237.68595
1930-12-16,1237.68595
1930-12-17,1203.96694
1930-12-18,1203.96694
1930-12-19,1237.68595
1930-12-20,307.43802
1930-12-21,1108.76033
1930-12-22,1108.76033
1930-12-23,1140.49587
1930-12-24,1140.49587
1930-12-25,1140.49587
1930-12-26,1140.49587
1930-12-27,1140.49587
1930-12-28,353.05785
1930-12-29,0.0
1930-12-30,0.0
1930-12-31,0.0
1931-01-01,0.0
1931-01-02,0.0
1931-01-03,0.0
1931-01-04,0.0
1931-01-05,0.0
1931-01-06,0.0
1931-01-07,0.0
1931-01-08,0.0
1931-01-09,0.0
1931-01-10,0.0
1931-01-11,0.0
1931-01-12,0.0
1931-01-13,0.0
1931-01-14,0.0
1931-01-15,0.0
1931-01-16,0.0
1931-01-17,0.0
1931-01-18,0.0
1931-01-19,0.0
1931-01-20,0.0
1931-01-21,0.0
1931-01-22,0.0
1931-01-23,0.0
1931-01-24,0.0
1931-01-25,0.0
1931-01-26,0.0
1931-01-27,0.0
1931-01-28,0.0
1931-01-29,0.0
1931-01-30,0.0
1931-01-31,0.0
1931-02-01,0.0
1931-02-02,0.0
1931-02-03,0.0
1931-02-04,0.0
1931-02-05,0.0
1931-02-06,0.0
1931-02-07,0.0
1931-02-08,0.0
1931-02-09,0.0
1931-02-10,0.0
1931-02-11,0.0
1931-02-12,0.0
1931-02-13,0.0
1931-02-14,0.0
1931-02-15,0.0
1931-02-16,0.0
1931-02-17,0.0
1931-02-18,0.0
1931-02-19,0.0
1931-02-20,0.0
1931-02-21,0.0
1931-02-22,0.0
1931-02-23,0.0
1931-02-24,0.0
1931-02-25,0.0
1931-02-26,0.0
1931-02-27,0.0
1931-02-28,0.0
1931-03-01,0.0
1931-03-02,0.0
1931-03-03,0.0
1931-03-04,0.0
1931-03-05,0.0
1931-03-06,0.0
1931-03-07,0.0
1931-03-08,0.0
1931-03-09,0.0
1931-03-10,0.0
1931-03-11,327.27273
1931-03-12,829.09091
1931-03-13,1045.28926
1931-03-14,1140.49587
1931-03-15,1140.49587
1931-03-16,1045.28926
1931-03-17,1045.28926
1931-03-18,1108.76033
1931-03-19,1108.76033
1931-03-20,1108.76033
1931-03-21,1108.76033
1931-03-22,1108.76033
1931-03-23,1140.49587
1931-03-24,1140.49587
1931-03-25,1140.49587
1931-03-26,1140.49587
1931-03-27,1140.49587
1931-03-28,1140.49587
1931-03-29,1140.49587
1931-03-30,1172.2314
1931-03-31,1172.2314
1931-04-01,1172.2314
1931-04-02,1172.2314
1931-04-03,1172.2314
1931-04-04,1172.2314
1931-04-05,1203.96694
1931-04-06,1045.28926
1931-04-07,1140.49587
1931-04-08,1203.96694
1931-04-09,1203.96694
1931-04-10,1203.96694
1931-04-11,1203.96694
1931-04-12,1203.96694
1931-04-13,1203.96694
1931-04-14,1203.96694
1931-04-15,1203.96694
1931-04-16,1203.96694
1931-04-17,1203.96694
1931-04-18,1203.96694
1931-04-19,1203.96694
1931-04-20,1203.96694
1931-04-21,1203.96694
1931-04-22,1203.96694
1931-04-23,1203.96694
1931-04-24,1203.96694
1931-04-25,1203.96694
1931-04-26,1203.96694
1931-04-27,1203.96694
1931-04-28,1203.96694
1931-04-29,1203.96694
1931-04-30,1203.96694
1931-05-01,1203.96694
1931-05-02,1203.96694
1931-05-03,1203.96694
1931-05-04,1203.96694
1931-05-05,1203.96694
1931-05-06,1203.96694
1931-05-07,1203.96694
1931-05-08,1203.96694
1931-05-09,1203.96694
1931-05-10,1203.96694
1931-05-11,1203.96694
1931-05-12,1203.96694
1931-05-13,1203.96694
1931-05-14,1203.96694
1931-05-15,1203.96694
1931-05-16,1203.96694
1931-05-17,1203.96694
1931-05-18,1203.96694
1931-05-19,1203.96694
1931-05-20,1203.96694
1931-05-21,1172.2314
1931-05-22,1077.02479
1931-05-23,1203.96694
1931-05-24,1203.96694
1931-05-25,1203.96694
1931-05-26,1203.96694
1931-05-27,1203.96694
1931-05-28,1203.96694
1931-05-29,1203.96694
1931-05-30,1203.96694
1931-05-31,1203.96694
1931-06-01,1203.96694
1931-06-02,1203.96694
1931-06-03,1203.96694
1931-06-04,1203.96694
1931-06-05,1203.96694
1931-06-06,1203.96694
1931-06-07,1203.96694
1931-06-08,1203.96694
1931-06-09,1203.96694
1931-06-10,1203.96694
1931-06-11,1188.09917
1931-06-12,1203.96694
1931-06-13,1203.96694
1931-06-14,1203.96694
1931-06-15,1203.96694
1931-06-16,1203.96694
1931-06-17,1203.96694
1931-06-18,1203.96694
1931-06-19,1203.96694
1931-06-20,1203.96694
1931-06-21,1203.96694
1931-06-22,1203.96694
1931-06-23,1203.96694
1931-06-24,1203.96694
1931-06-25,1203.96694
1931-06-26,1203.96694
1931-06-27,1203.96694
1931-06-28,1203.96694
1931-06-29,1108.76033
1931-06-30,1140.49587
1931-07-01,1203.96694
1931-07-02,1203.96694
1931-07-03,1203.96694
1931-07-04,628.76033
1931-07-05,1045.28926
1931-07-06,1203.96694
1931-07-07,1203.96694
1931-07-08,1172.2314
1931-07-09,1013.55372
1931-07-10,769.58678
1931-07-11,684.29752
1931-07-12,656.52893
1931-07-13,656.52893
1931-07-14,577.19008
1931-07-15,551.40496
1931-07-16,525.61983
1931-07-17,525.61983
1931-07-18,525.61983
1931-07-19,476.03306
1931-07-20,577.19008
1931-07-21,408.59504
1931-07-22,347.10744
1931-07-23,347.10744
1931-07-24,347.10744
1931-07-25,366.94215
1931-07-26,347.10744
1931-07-27,366.94215
1931-07-28,366.94215
1931-07-29,712.06612
1931-07-30,499.83471
1931-07-31,430.41322
1931-08-01,981.81818
1931-08-02,712.06612
1931-08-03,499.83471
1931-08-04,452.2314
1931-08-05,452.2314
1931-08-06,499.83471
1931-08-07,858.84298
1931-08-08,551.40496
1931-08-09,656.52893
1931-08-10,602.97521
1931-08-11,551.40496
1931-08-12,577.19008
1931-08-13,525.61983
1931-08-14,452.2314
1931-08-15,408.59504
1931-08-16,386.77686
1931-08-17,366.94215
1931-08-18,452.2314
1931-08-19,430.41322
1931-08-20,452.2314
1931-08-21,452.2314
1931-08-22,386.77686
1931-08-23,386.77686
1931-08-24,366.94215
1931-08-25,347.10744
1931-08-26,347.10744
1931-08-27,347.10744
1931-08-28,347.10744
1931-08-29,386.77686
1931-08-30,366.94215
1931-08-31,386.77686
1931-09-01,430.41322
1931-09-02,602.97521
1931-09-03,499.83471
1931-09-04,430.41322
1931-09-05,408.59504
1931-09-06,408.59504
1931-09-07,408.59504
1931-09-08,577.19008
1931-09-09,430.41322
1931-09-10,430.41322
1931-09-11,430.41322
1931-09-12,430.41322
1931-09-13,408.59504
1931-09-14,430.41322
1931-09-15,452.2314
1931-09-16,628.76033
1931-09-17,499.83471
1931-09-18,476.03306
1931-09-19,525.61983
1931-09-20,829.09091
1931-09-21,918.34711
1931-09-22,918.34711
1931-09-23,918.34711
1931-09-24,950.08264
1931-09-25,981.81818
1931-09-26,981.81818
1931-09-27,981.81818
1931-09-28,981.81818
1931-09-29,981.81818
1931-09-30,981.81818
1931-10-01,
1931-10-02,
1931-10-03,
1931-10-04,
1931-10-05,
1931-10-06,
1931-10-07,
1931-10-08,
1931-10-09,
1931-10-10,
1931-10-11,
1931-10-12,
1931-10-13,
1931-10-14,
1931-10-15,
1931-10-16,
1931-10-17,
1931-10-18,
1931-10-19,
1931-10-20,
1931-10-21,
1931-10-22,
1931-10-23,
1931-10-24,
1931-10-25,
1931-10-26,
1931-10-27,
1931-10-28,
1931-10-29,
1931-10-30,
1931-10-31,
1931-11-01,
1931-11-02,
1931-11-03,
1931-11-04,
1931-11-05,
1931-11-06,
1931-11-07,
1931-11-08,
1931-11-09,
1931-11-10,
1931-11-11,
1931-11-12,
1931-11-13,
1931-11-14,
1931-11-15,
1931-11-16,
1931-11-17,
1931-11-18,
1931-11-19,
1931-11-20,
1931-11-21,
1931-11-22,
1931-11-23,
1931-11-24,
1931-11-25,
1931-11-26,
1931-11-27,
1931-11-28,
1931-11-29,
1931-11-30,
1931-12-01,
1931-12-02,
1931-12-03,
1931-12-04,
1931-12-05,
1931-12-06,
1931-12-07,
1931-12-08,
1931-12-09,
1931-12-10,
1931-12-11,
1931-12-12,
1931-12-13,
1931-12-14,
1931-12-15,
1931-12-16,
1931-12-17,
1931-12-18,
1931-12-19,
1931-12-20,
1931-12-21,
1931-12-22,
1931-12-23,
1931-12-24,
1931-12-25,
1931-12-26,
1931-12-27,
1931-12-28,
1931-12-29,
1931-12-30,
1931-12-31,
1932-01-01,
1932-01-02,
1932-01-03,
1932-01-04,
1932-01-05,
1932-01-06,
1932-01-07,
1932-01-08,
1932-01-09,
1932-01-10,
1932-01-11,
1932-01-12,
1932-01-13,
1932-01-14,
1932-01-15,
1932-01-16,
1932-01-17,
1932-01-18,
1932-01-19,
1932-01-20,
1932-01-21,
1932-01-22,
1932-01-23,
1932-01-24,
1932-01-25,
1932-01-26,
1932-01-27,
1932-01-28,
1932-01-29,
1932-01-30,
1932-01-31,
1932-02-01,
1932-02-02,
1932-02-03,
1932-02-04,
1932-02-05,
1932-02-06,
1932-02-07,
1932-02-08,
1932-02-09,
1932-02-10,
1932-02-11,
1932-02-12,
1932-02-13,
1932-02-14,
1932-02-15,
1932-02-16,
1932-02-17,
1932-02-18,
1932-02-19,
1932-02-20,
1932-02-21,
1932-02-22,
1932-02-23,
1932-02-24,
1932-02-25,
1932-02-26,
1932-02-27,
1932-02-28,
1932-02-29,
1932-03-01,
1932-03-02,
1932-03-03,
1932-03-04,
1932-03-05,
1932-03-06,
1932-03-07,
1932-03-08,
1932-03-09,
1932-03-10,
1932-03-11,
1932-03-12,
1932-03-13,
1932-03-14,
1932-03-15,
1932-03-16,
1932-03-17,
1932-03-18,
1932-03-19,
1932-03-20,
1932-03-21,
1932-03-22,
1932-03-23,
1932-03-24,
1932-03-25,
1932-03-26,
1932-03-27,
1932-03-28,
1932-03-29,
1932-03-30,
1932-03-31,
1932-04-01,
1932-04-02,
1932-04-03,
1932-04-04,
1932-04-05,
1932-04-06,
1932-04-07,
1932-04-08,
1932-04-09,
1932-04-10,
1932-04-11,
1932-04-12,
1932-04-13,
1932-04-14,
1932-04-15,
1932-04-16,
1932-04-17,
1932-04-18,
1932-04-19,
1932-04-20,
1932-04-21,
1932-04-22,
1932-04-23,
1932-04-24,
1932-04-25,
1932-04-26,
1932-04-27,
1932-04-28,
1932-04-29,
1932-04-30,
1932-05-01,1108.76033
1932-05-02,1203.96694
1932-05-03,1237.68595
1932-05-04,1237.68595
1932-05-05,1237.68595
1932-05-06,1237.68595
1932-05-07,1237.68595
1932-05-08,1172.2314
1932-05-09,1237.68595
1932-05-10,1237.68595
1932-05-11,1237.68595
1932-05-12,1237.68595
1932-05-13,1237.68595
1932-05-14,1253.55372
1932-05-15,1271.40496
1932-05-16,1271.40496
1932-05-17,1271.40496
1932-05-18,1289.2562
1932-05-19,1289.2562
1932-05-20,1289.2562
1932-05-21,1289.2562
1932-05-22,1289.2562
1932-05-23,1305.12397
1932-05-24,1388.42975
1932-05-25,1305.12397
1932-05-26,1305.12397
1932-05-27,1305.12397
1932-05-28,1305.12397
1932-05-29,1305.12397
1932-05-30,1305.12397
1932-05-31,1305.12397
1932-06-01,1271.40496
1932-06-02,1237.68595
1932-06-03,1221.81818
1932-06-04,1338.84298
1932-06-05,1338.84298
1932-06-06,1305.12397
1932-06-07,1271.40496
1932-06-08,1372.56198
1932-06-09,1372.56198
1932-06-10,1372.56198
1932-06-11,1372.56198
1932-06-12,1372.56198
1932-06-13,1372.56198
1932-06-14,1406.28099
1932-06-15,1388.42975
1932-06-16,1440.0
1932-06-17,1388.42975
1932-06-18,1388.42975
1932-06-19,1388.42975
1932-06-20,1388.42975
1932-06-21,1424.13223
1932-06-22,1388.42975
1932-06-23,1424.13223
1932-06-24,1406.28099
1932-06-25,1406.28099
1932-06-26,1473.71901
1932-06-27,1406.28099
1932-06-28,1406.28099
1932-06-29,1372.56198
1932-06-30,1338.84298
1932-07-01,1271.40496
1932-07-02,1406.28099
1932-07-03,1406.28099
1932-07-04,1406.28099
1932-07-05,1406.28099
1932-07-06,1356.69421
1932-07-07,1172.2314
1932-07-08,1338.84298
1932-07-09,1406.28099
1932-07-10,1406.28099
1932-07-11,1406.28099
1932-07-12,1406.28099
1932-07-13,1406.28099
1932-07-14,1406.28099
1932-07-15,1406.28099
1932-07-16,1406.28099
1932-07-17,1406.28099
1932-07-18,1406.28099
1932-07-19,1406.28099
1932-07-20,1406.28099
1932-07-21,1388.42975
1932-07-22,1406.28099
1932-07-23,1406.28099
1932-07-24,1406.28099
1932-07-25,1406.28099
1932-07-26,1406.28099
1932-07-27,1406.28099
1932-07-28,1406.28099
1932-07-29,1406.28099
1932-07-30,1372.56198
1932-07-31,1406.28099
1932-08-01,1406.28099
1932-08-02,1406.28099
1932-08-03,1406.28099
1932-08-04,1406.28099
1932-08-05,1406.28099
1932-08-06,1406.28099
1932-08-07,1406.28099
1932-08-08,1406.28099
1932-08-09,1406.28099
1932-08-10,1338.84298
1932-08-11,1338.84298
1932-08-12,1305.12397
1932-08-13,1237.68595
1932-08-14,1140.49587
1932-08-15,1045.28926
1932-08-16,918.34711
1932-08-17,918.34711
1932-08-18,918.34711
1932-08-19,1237.68595
1932-08-20,1140.49587
1932-08-21,1271.40496
1932-08-22,1305.12397
1932-08-23,1299.17355
1932-08-24,1372.56198
1932-08-25,1338.84298
1932-08-26,1305.12397
1932-08-27,1305.12397
1932-08-28,1406.28099
1932-08-29,1406.28099
1932-08-30,1406.28099
1932-08-31,1406.28099
1932-09-01,1406.28099
1932-09-02,1406.28099
1932-09-03,1406.28099
1932-09-04,1388.42975
1932-09-05,1356.69421
1932-09-06,1317.02479
1932-09-07,1289.2562
1932-09-08,1237.68595
1932-09-09,1140.49587
1932-09-10,1045.28926
1932-09-11,1029.42149
1932-09-12,1077.02479
1932-09-13,1029.42149
1932-09-14,981.81818
1932-09-15,1013.55372
1932-09-16,1013.55372
1932-09-17,934.21488
1932-09-18,918.34711
1932-09-19,934.21488
1932-09-20,934.21488
1932-09-21,950.08264
1932-09-22,904.46281
1932-09-23,888.59504
1932-09-24,918.34711
1932-09-25,1077.02479
1932-09-26,1338.84298
1932-09-27,1473.71901
1932-09-28,1338.84298
1932-09-29,1338.84298
1932-09-30,1338.84298
1932-10-01,1473.71901
1932-10-02,1289.2562
1932-10-03,1305.12397
1932-10-04,1277.35537
1932-10-05,1237.68595
1932-10-06,1271.40496
1932-10-07,1271.40496
1932-10-08,1237.68595
1932-10-09,1221.81818
1932-10-10,1172.2314
1932-10-11,1271.40496
1932-10-12,1237.68595
1932-10-13,1271.40496
1932-10-14,1289.2562
1932-10-15,1289.2562
1932-10-16,1172.2314
1932-10-17,1305.12397
1932-10-18,1289.2562
1932-10-19,1305.12397
1932-10-20,1271.40496
1932-10-21,1289.2562
1932-10-22,1305.12397
1932-10-23,1271.40496
1932-10-24,1289.2562
1932-10-25,1289.2562
1932-10-26,1277.35537
1932-10-27,1271.40496
1932-10-28,1289.2562
1932-10-29,1305.12397
1932-10-30,1271.40496
1932-10-31,1305.12397
1932-11-01,1289.2562
1932-11-02,1271.40496
1932-11-03,1271.40496
1932-11-04,1305.12397
1932-11-05,1305.12397
1932-11-06,1305.12397
1932-11-07,1289.2562
1932-11-08,1305.12397
1932-11-09,1289.2562
1932-11-10,1172.2314
1932-11-11,1172.2314
1932-11-12,1172.2314
1932-11-13,1140.49587
1932-11-14,1203.96694
1932-11-15,1203.96694
1932-11-16,1237.68595
1932-11-17,1203.96694
1932-11-18,1203.96694
1932-11-19,1203.96694
1932-11-20,1203.96694
1932-11-21,1203.96694
1932-11-22,1203.96694
1932-11-23,1203.96694
1932-11-24,1203.96694
1932-11-25,1203.96694
1932-11-26,1203.96694
1932-11-27,1203.96694
1932-11-28,1203.96694
1932-11-29,1203.96694
1932-11-30,1203.96694
1932-12-01,1289.2562
1932-12-02,1289.2562
1932-12-03,1305.12397
1932-12-04,1271.40496
1932-12-05,341.15702
1932-12-06,712.06612
1932-12-07,1172.2314
1932-12-08,1172.2314
1932-12-09,1271.40496
1932-12-10,1253.55372
1932-12-11,1271.40496
1932-12-12,1271.40496
1932-12-13,1203.96694
1932-12-14,1077.02479
1932-12-15,1271.40496
1932-12-16,1271.40496
1932-12-17,1253.55372
1932-12-18,1271.40496
1932-12-19,1271.40496
1932-12-20,1271.40496
1932-12-21,1271.40496
1932-12-22,1271.40496
1932-12-23,1473.71901
1932-12-24,1237.68595
1932-12-25,
1932-12-26,
1932-12-27,
1932-12-28,
1932-12-29,
1932-12-30,
1932-12-31,
1933-01-01,
1933-01-02,
1933-01-03,
1933-01-04,
1933-01-05,
1933-01-06,
1933-01-07,
1933-01-08,
1933-01-09,
1933-01-10,
1933-01-11,
1933-01-12,
1933-01-13,
1933-01-14,
1933-01-15,
1933-01-16,
1933-01-17,
1933-01-18,
1933-01-19,
1933-01-20,
1933-01-21,
1933-01-22,
1933-01-23,
1933-01-24,
1933-01-25,
1933-01-26,
1933-01-27,
1933-01-28,
1933-01-29,
1933-01-30,
1933-01-31,
1933-02-01,
1933-02-02,
1933-02-03,
1933-02-04,
1933-02-05,
1933-02-06,
1933-02-07,
1933-02-08,
1933-02-09,
1933-02-10,
1933-02-11,
1933-02-12,
1933-02-13,
1933-02-14,
1933-02-15,
1933-02-16,
1933-02-17,
1933-02-18,
1933-02-19,
1933-02-20,
1933-02-21,
1933-02-22,
1933-02-23,
1933-02-24,
1933-02-25,
1933-02-26,
1933-02-27,
1933-02-28,
1933-03-01,
1933-03-02,
1933-03-03,
1933-03-04,
1933-03-05,
1933-03-06,
1933-03-07,
1933-03-08,
1933-03-09,
1933-03-10,
1933-03-11,
1933-03-12,
1933-03-13,
1933-03-14,
1933-03-15,
1933-03-16,
1933-03-17,
1933-03-18,
1933-03-19,
1933-03-20,
1933-03-21,
1933-03-22,
1933-03-23,
1933-03-24,
1933-03-25,
1933-03-26,
1933-03-27,
1933-03-28,
1933-03-29,
1933-03-30,
1933-03-31,
1933-04-01,
1933-04-02,
1933-04-03,
1933-04-04,
1933-04-05,
1933-04-06,
1933-04-07,
1933-04-08,
1933-04-09,
1933-04-10,
1933-04-11,
1933-04-12,
1933-04-13,
1933-04-14,
1933-04-15,
1933-04-16,
1933-04-17,
1933-04-18,
1933-04-19,
1933-04-20,
1933-04-21,
1933-04-22,
1933-04-23,
1933-04-24,
1933-04-25,
1933-04-26,
1933-04-27,
1933-04-28,
1933-04-29,
1933-04-30,
1933-05-01,
1933-05-02,
1933-05-03,
1933-05-04,
1933-05-05,
1933-05-06,
1933-05-07,
1933-05-08,
1933-05-09,
1933-05-10,
1933-05-11,
1933-05-12,
1933-05-13,
1933-05-14,
1933-05-15,
1933-05-16,
1933-05-17,
1933-05-18,
1933-05-19,
1933-05-20,
1933-05-21,
1933-05-22,
1933-05-23,
1933-05-24,
1933-05-25,
1933-05-26,
1933-05-27,
1933-05-28,
1933-05-29,
1933-05-30,
1933-05-31,
1933-06-01,1271.40496
1933-06-02,1271.40496
1933-06-03,1271.40496
1933-06-04,1271.40496
1933-06-05,1271.40496
1933-06-06,1271.40496
1933-06-07,1271.40496
1933-06-08,1271.40496
1933-06-09,1188.09917
1933-06-10,1203.96694
1933-06-11,1271.40496
1933-06-12,1271.40496
1933-06-13,1271.40496
1933-06-14,1271.40496
1933-06-15,1237.68595
1933-06-16,1271.40496
1933-06-17,1271.40496
1933-06-18,1271.40496
1933-06-19,1271.40496
1933-06-20,1271.40496
1933-06-21,1203.96694
1933-06-22,1124.6281
1933-06-23,1253.55372
1933-06-24,1203.96694
1933-06-25,1172.2314
1933-06-26,1140.49587
1933-06-27,1305.12397
1933-06-28,1231.73554
1933-06-29,813.22314
1933-06-30,1305.12397
1933-07-01,1305.12397
1933-07-02,1305.12397
1933-07-03,1253.55372
1933-07-04,1305.12397
1933-07-05,1305.12397
1933-07-06,1305.12397
1933-07-07,1305.12397
1933-07-08,1172.2314
1933-07-09,1289.2562
1933-07-10,1305.12397
1933-07-11,1305.12397
1933-07-12,1305.12397
1933-07-13,1305.12397
1933-07-14,1305.12397
1933-07-15,1305.12397
1933-07-16,1305.12397
1933-07-17,1305.12397
1933-07-18,1305.12397
1933-07-19,1305.12397
1933-07-20,1285.28926
1933-07-21,1108.76033
1933-07-22,1253.55372
1933-07-23,888.59504
1933-07-24,799.33884
1933-07-25,739.83471
1933-07-26,656.52893
1933-07-27,551.40496
1933-07-28,539.50413
1933-07-29,430.41322
1933-07-30,408.59504
1933-07-31,739.83471
1933-08-01,1140.49587
1933-08-02,858.84298
1933-08-03,1172.2314
1933-08-04,1271.40496
1933-08-05,1203.96694
1933-08-06,981.81818
1933-08-07,950.08264
1933-08-08,1237.68595
1933-08-09,1305.12397
1933-08-10,1271.40496
1933-08-11,1305.12397
1933-08-12,1305.12397
1933-08-13,1305.12397
1933-08-14,1203.96694
1933-08-15,1045.28926
1933-08-16,858.84298
1933-08-17,430.41322
1933-08-18,525.61983
1933-08-19,452.2314
1933-08-20,739.83471
1933-08-21,602.97521
1933-08-22,551.40496
1933-08-23,829.09091
1933-08-24,712.06612
1933-08-25,551.40496
1933-08-26,499.83471
1933-08-27,577.19008
1933-08-28,829.09091
1933-08-29,712.06612
1933-08-30,577.19008
1933-08-31,551.40496
1933-09-01,499.83471
1933-09-02,525.61983
1933-09-03,476.03306
1933-09-04,577.19008
1933-09-05,476.03306
1933-09-06,430.41322
1933-09-07,430.41322
1933-09-08,430.41322
1933-09-09,499.83471
1933-09-10,577.19008
1933-09-11,712.06612
1933-09-12,739.83471
1933-09-13,1271.40496
1933-09-14,1271.40496
1933-09-15,1237.68595
1933-09-16,1237.68595
1933-09-17,1221.81818
1933-09-18,1140.49587
1933-09-19,1271.40496
1933-09-20,1271.40496
1933-09-21,1271.40496
1933-09-22,1271.40496
1933-09-23,1271.40496
1933-09-24,1237.68595
1933-09-25,1237.68595
1933-09-26,1237.68595
1933-09-27,1237.68595
1933-09-28,1271.40496
1933-09-29,1271.40496
1933-09-30,1253.55372
1933-10-01,
1933-10-02,
1933-10-03,
1933-10-04,
1933-10-05,
1933-10-06,
1933-10-07,
1933-10-08,
1933-10-09,
1933-10-10,
1933-10-11,
1933-10-12,
1933-10-13,
1933-10-14,
1933-10-15,
1933-10-16,
1933-10-17,
1933-10-18,
1933-10-19,
1933-10-20,
1933-10-21,
1933-10-22,
1933-10-23,
1933-10-24,
1933-10-25,
1933-10-26,
1933-10-27,
1933-10-28,
1933-10-29,
1933-10-30,
1933-10-31,
1933-11-01,
1933-11-02,
1933-11-03,
1933-11-04,
1933-11-05,
1933-11-06,
1933-11-07,
1933-11-08,
1933-11-09,
1933-11-10,
1933-11-11,
1933-11-12,
1933-11-13,
1933-11-14,
1933-11-15,
1933-11-16,
1933-11-17,
1933-11-18,
1933-11-19,
1933-11-20,
1933-11-21,
1933-11-22,
1933-11-23,
1933-11-24,
1933-11-25,
1933-11-26,
1933-11-27,
1933-11-28,
1933-11-29,
1933-11-30,
1933-12-01,
1933-12-02,
1933-12-03,
1933-12-04,
1933-12-05,
1933-12-06,
1933-12-07,
1933-12-08,
1933-12-09,
1933-12-10,
1933-12-11,
1933-12-12,
1933-12-13,
1933-12-14,
1933-12-15,
1933-12-16,
1933-12-17,
1933-12-18,
1933-12-19,
1933-12-20,
1933-12-21,
1933-12-22,
1933-12-23,
1933-12-24,
1933-12-25,
1933-12-26,
1933-12-27,
1933-12-28,
1933-12-29,
1933-12-30,
1933-12-31,
1934-01-01,
1934-01-02,
1934-01-03,
1934-01-04,
1934-01-05,
1934-01-06,
1934-01-07,
1934-01-08,
1934-01-09,
1934-01-10,
1934-01-11,
1934-01-12,
1934-01-13,
1934-01-14,
1934-01-15,
1934-01-16,
1934-01-17,
1934-01-18,
1934-01-19,
1934-01-20,
1934-01-21,
1934-01-22,
1934-01-23,
1934-01-24,
1934-01-25,
1934-01-26,
1934-01-27,
1934-01-28,
1934-01-29,
1934-01-30,
1934-01-31,
1934-02-01,
1934-02-02,
1934-02-03,
1934-02-04,
1934-02-05,
1934-02-06,
1934-02-07,
1934-02-08,
1934-02-09,
1934-02-10,
1934-02-11,
1934-02-12,
1934-02-13,
1934-02-14,
1934-02-15,
1934-02-16,
1934-02-17,
1934-02-18,
1934-02-19,
1934-02-20,
1934-02-21,
1934-02-22,
1934-02-23,
1934-02-24,
1934-02-25,
1934-02-26,
1934-02-27,
1934-02-28,
1934-03-01,
1934-03-02,
1934-03-03,
1934-03-04,
1934-03-05,
1934-03-06,
1934-03-07,
1934-03-08,
1934-03-09,
1934-03-10,
1934-03-11,
1934-03-12,1203.96694
1934-03-13,1203.96694
1934-03-14,1203.96694
1934-03-15,1203.96694
1934-03-16,1203.96694
1934-03-17,1203.96694
1934-03-18,1237.68595
1934-03-19,1237.68595
1934-03-20,1172.2314
1934-03-21,1237.68595
1934-03-22,1237.68595
1934-03-23,1172.2314
1934-03-24,1203.96694
1934-03-25,1172.2314
1934-03-26,1013.55372
1934-03-27,1013.55372
1934-03-28,888.59504
1934-03-29,739.83471
1934-03-30,684.29752
1934-03-31,602.97521
1934-04-01,684.29752
1934-04-02,1045.28926
1934-04-03,684.29752
1934-04-04,829.09091
1934-04-05,1108.76033
1934-04-06,918.34711
1934-04-07,799.33884
1934-04-08,656.52893
1934-04-09,577.19008
1934-04-10,642.64463
1934-04-11,858.84298
1934-04-12,1172.2314
1934-04-13,1237.68595
1934-04-14,1237.68595
1934-04-15,1237.68595
1934-04-16,1237.68595
1934-04-17,1237.68595
1934-04-18,1237.68595
1934-04-19,1237.68595
1934-04-20,1237.68595
1934-04-21,1237.68595
1934-04-22,1271.40496
1934-04-23,1237.68595
1934-04-24,1237.68595
1934-04-25,1271.40496
1934-04-26,1271.40496
1934-04-27,1271.40496
1934-04-28,1237.68595
1934-04-29,1271.40496
1934-04-30,1271.40496
1934-05-01,1271.40496
1934-05-02,1271.40496
1934-05-03,1271.40496
1934-05-04,1271.40496
1934-05-05,1271.40496
1934-05-06,1271.40496
1934-05-07,1271.40496
1934-05-08,1271.40496
1934-05-09,1271.40496
1934-05-10,1271.40496
1934-05-11,1271.40496
1934-05-12,1271.40496
1934-05-13,1271.40496
1934-05-14,1271.40496
1934-05-15,1203.96694
1934-05-16,1172.2314
1934-05-17,1271.40496
1934-05-18,1271.40496
1934-05-19,1271.40496
1934-05-20,1271.40496
1934-05-21,1271.40496
1934-05-22,1271.40496
1934-05-23,1271.40496
1934-05-24,1271.40496
1934-05-25,1271.40496
1934-05-26,1271.40496
1934-05-27,1271.40496
1934-05-28,1271.40496
1934-05-29,1271.40496
1934-05-30,1271.40496
1934-05-31,1271.40496
1934-06-01,1271.40496
1934-06-02,1271.40496
1934-06-03,1271.40496
1934-06-04,1271.40496
1934-06-05,1271.40496
1934-06-06,1271.40496
1934-06-07,1271.40496
1934-06-08,1271.40496
1934-06-09,1271.40496
1934-06-10,1188.09917
1934-06-11,858.84298
1934-06-12,769.58678
1934-06-13,577.19008
1934-06-14,452.2314
1934-06-15,476.03306
1934-06-16,430.41322
1934-06-17,430.41322
1934-06-18,408.59504
1934-06-19,408.59504
1934-06-20,386.77686
1934-06-21,366.94215
1934-06-22,366.94215
1934-06-23,341.15702
1934-06-24,317.35537
1934-06-25,386.77686
1934-06-26,476.03306
1934-06-27,499.83471